Location: Orange
(33.2833°S, 149.1000°E)
Time: 16:01:16
(UTC+11:00)

Envisat - Visible Passes

Search period start: 15 December 2019 00:00
Search period end: 25 December 2019 00:00
Orbit: 764 x 766 km, 98.1° (Epoch: 14 December)

Date Brightness Start Highest point End Pass type
(mag) Time Alt. Az. Time Alt. Az. Time Alt. Az.
16 Dec 6.2 21:13:10 10° SW 21:15:39 14° WSW 21:18:07 10° W visible
17 Dec 5.2 20:34:47 10° S 20:39:15 31° WSW 20:43:42 10° NW visible
19 Dec 6.0 21:01:11 10° SSW 21:04:30 18° WSW 21:07:48 10° WNW visible
22 Dec 5.8 20:49:26 10° SSW 20:53:20 22° WSW 20:57:13 10° WNW visible
24 Dec 6.3 21:16:30 10° SW 21:18:31 12° WSW 21:20:32 10° W visible
